RH
38 31 27 26 26 27 28 28 30 30 29 26 21 20 25 30 37 46 53 51 44 43 44 44 55 70 74 76 83 93 95 85 84 92 93 92 92 92 94 93 94 97 98 101 99 95 95 91 87 90 89 85 87 83 69 59 58 57 51 49 45 35 33 39 47 55 50 41 40 39 32 28 31 36 37 34 33 31 25 26 26 24 26 29 34 43 35
45 38 31 28 27 27 28 28 30 31 31 30 24 22 25 32 44 45 38 37 41 44 43 42 56 70 69 68 75 83 85 80 83 88 86 89 90 85 84 85 92 99 99 100 101 100 100 94 89 92 90 85 87 86 74 63 62 57 48 46 41 32 35 41 52 69 64 42 37 37 31 28 28 31 36 36 32 28 25 20 19 23 26 30 41 45 32
49 44 37 31 28 28 28 28 30 30 33 33 28 26 24 30 46 47 35 34 41 42 42 45 54 57 53 57 69 75 75 77 85 85 82 87 89 82 80 85 93 98 99 101 97 90 95 100 99 95 90 84 80 77 74 65 58 54 50 44 35 34 44 45 52 77 81 60 46 38 30 28 27 27 30 32 30 28 26 21 20 27 27 25 32 35 28
50 49 44 36 30 29 28 29 30 30 32 33 31 30 26 26 39 42 36 39 40 37 41 45 48 48 46 55 73 84 81 74 76 82 83 83 83 79 80 87 93 93 96 102 95 84 88 100 100 93 90 87 77 70 67 59 50 47 48 45 36 38 51 54 54 68 73 62 49 39 34 32 28 28 29 28 28 28 28 26 23 24 26 25 25 25 25
49 50 48 42 35 31 29 30 30 31 32 33 32 33 30 27 28 30 35 37 32 31 40 46 52 58 62 70 84 93 87 73 73 82 81 75 79 82 82 86 89 88 93 101 97 92 94 96 94 88 80 75 71 66 58 48 44 43 43 46 47 48 54 58 58 61 61 57 50 44 45 42 31 27 28 27 27 28 29 29 24 22 27 30 26 22 25
49 50 51 47 41 35 32 31 31 32 33 33 33 33 33 30 26 29 33 30 25 28 38 49 59 67 76 85 92 95 88 78 81 84 75 70 81 88 85 84 84 82 88 95 93 94 93 84 82 80 68 61 63 59 51 44 42 43 44 47 50 52 53 55 58 61 59 56 51 46 46 43 35 30 29 28 29 29 30 27 23 24 29 29 24 24 27
50 49 51 50 46 40 36 33 33 33 34 34 35 35 35 33 29 29 27 21 23 29 36 48 56 60 75 89 93 94 90 82 80 76 70 73 81 86 84 80 79 78 82 87 86 90 93 83 69 60 58 70 74 59 45 44 42 41 43 44 45 46 51 58 66 68 62 57 52 46 44 44 38 31 27 28 29 28 28 27 26 26 26 23 23 25 26
53 51 51 52 51 45 40 36 35 35 35 36 37 36 37 36 33 29 24 20 23 24 28 40 45 53 80 96 91 88 84 72 61 58 71 84 80 77 81 79 76 76 78 80 80 83 94 91 71 50 49 69 75 54 38 37 39 40 40 40 43 47 51 58 66 71 69 64 60 57 57 55 46 35 29 27 27 27 27 27 27 26 24 23 25 24 23
57 53 53 54 54 50 44 40 37 36 37 37 38 37 37 38 36 31 25 21 22 20 20 26 33 50 81 93 85 77 66 51 44 50 73 90 80 70 76 78 74 73 75 80 81 80 87 90 73 49 45 60 68 61 51 43 37 38 39 41 45 48 51 56 67 75 72 65 65 63 57 53 47 40 34 26 23 25 26 25 26 26 25 24 24 23 25
61 57 55 55 57 54 49 44 40 37 38 38 37 38 37 37 36 33 27 22 20 19 17 20 30 47 65 70 65 62 50 37 44 61 72 77 73 71 76 77 70 69 76 80 79 78 81 81 68 47 41 54 62 65 70 67 55 44 37 37 43 46 50 60 72 78 71 67 67 59 53 58 55 44 38 33 26 25 25 25 26 25 24 24 23 23 27
66 62 60 57 59 58 54 49 43 39 39 39 39 39 38 37 36 33 29 22 19 20 18 23 33 41 47 48 44 45 39 29 44 75 80 67 66 75 79 74 66 69 80 80 75 78 77 70 59 45 39 46 48 48 59 69 70 59 41 32 36 41 47 58 66 69 71 73 68 61 68 77 64 45 41 40 33 29 26 25 26 24 23 24 25 26 28
71 67 64 61 60 61 58 54 46 40 40 40 40 40 39 38 36 33 30 23 19 19 19 27 41 41 36 35 32 36 38 29 37 64 69 59 64 76 78 72 66 72 86 86 77 73 68 61 52 40 35 40 42 41 42 47 56 58 48 37 33 35 44 53 58 63 70 74 75 80 88 78 55 43 41 39 39 38 31 24 24 24 23 24 24 25 25
75 72 70 65 62 63 62 57 49 43 41 41 41 41 40 39 36 32 30 23 19 20 20 26 36 34 25 25 27 33 37 31 30 41 48 54 66 74 74 70 69 78 90 90 79 67 63 63 56 43 36 37 38 37 35 33 36 42 47 44 35 34 42 49 54 62 70 79 89 93 84 63 50 47 41 37 40 42 40 36 27 22 24 24 22 22 22
78 76 74 70 66 65 65 61 54 46 42 41 42 41 40 39 35 32 29 23 20 25 26 24 23 21 19 22 28 32 31 28 26 28 39 57 70 74 77 73 72 82 90 87 81 73 69 68 60 48 41 38 37 35 30 30 33 36 43 45 35 31 39 46 54 62 70 82 90 86 76 65 56 50 46 51 51 47 59 66 42 22 23 24 22 22 23
82 79 78 74 69 67 67 65 58 50 44 42 43 42 40 38 34 31 29 23 20 25 28 25 21 19 19 21 26 32 31 28 26 24 35 56 66 68 74 72 72 84 91 89 90 85 77 76 71 61 52 47 49 47 37 34 36 36 40 42 36 32 36 43 53 59 67 81 89 89 88 78 60 50 55 67 68 61 69 74 48 24 23 24 22 23 22
84 83 81 77 72 70 69 68 62 55 47 43 43 42 40 37 33 30 27 23 21 23 24 24 23 21 19 19 25 33 33 31 28 23 29 47 55 55 63 70 74 82 88 89 93 92 87 85 85 80 73 67 64 61 51 43 42 40 39 40 41 42 43 44 51 56 63 75 85 89 87 71 55 55 61 68 73 67 62 59 45 30 26 22 20 23 23
86 86 83 79 76 72 71 70 66 59 50 44 44 44 40 37 33 30 27 24 21 23 24 21 19 21 21 19 22 29 34 33 32 29 28 39 51 51 55 67 74 77 81 81 80 84 88 88 89 91 89 83 77 70 59 49 45 42 40 38 40 45 47 47 50 54 58 64 70 75 72 59 54 64 69 68 71 69 61 59 52 41 38 36 26 21 22
89 88 85 80 78 75 72 71 69 63 54 46 44 45 42 38 33 29 27 25 21 23 26 23 21 23 24 23 24 29 32 32 32 30 27 36 53 56 57 69 75 73 76 75 72 77 83 85 93 99 92 84 79 73 67 61 53 45 40 38 38 41 44 47 51 54 57 60 63 64 62 57 59 68 71 68 70 68 63 64 62 53 55 59 47 30 22
91 91 86 80 79 77 73 72 72 66 58 49 46 46 44 38 34 30 27 25 22 21 25 25 23 23 24 26 28 31 34 37 37 33 28 34 49 54 58 74 81 76 74 72 69 74 76 78 91 101 93 84 82 81 79 74 66 57 48 41 40 41 44 49 54 57 57 57 60 64 64 63 64 70 73 74 77 73 61 62 65 56 49 52 53 45 33
93 93 87 80 80 79 75 74 74 70 61 52 47 47 46 40 35 31 28 26 22 20 23 23 21 22 25 29 30 29 30 37 41 36 30 34 46 49 52 66 78 80 79 74 68 67 67 72 87 98 97 91 88 88 84 70 61 65 64 54 45 44 45 48 51 55 59 60 63 69 71 68 69 73 73 75 83 78 61 59 67 61 49 44 42 45 47
95 94 89 81 80 82 78 76 77 73 65 57 49 47 46 42 37 32 28 27 24 20 21 22 20 21 25 28 30 28 26 31 36 34 30 32 43 52 60 72 83 89 89 85 77 68 59 64 81 92 95 94 89 90 90 76 61 63 67 61 53 53 61 67 63 58 62 65 64 65 66 67 73 77 73 76 86 79 61 60 68 64 56 49 41 43 51
96 95 90 83 81 83 82 79 79 76 69 60 52 48 47 43 39 34 29 27 25 21 21 21 21 23 26 28 30 30 28 30 35 38 35 32 38 54 69 78 85 92 93 87 76 64 55 59 72 81 87 91 91 92 95 89 77 67 64 65 66 68 75 79 74 66 65 66 64 61 59 64 76 80 77 83 91 82 69 71 74 64 57 58 60 59 54
97 95 91 85 83 84 84 82 81 78 72 63 54 49 47 45 41 35 30 28 26 22 21 22 22 24 26 29 30 29 27 27 29 33 38 35 36 50 67 76 79 84 87 80 66 58 54 55 65 78 84 88 93 95 92 89 86 79 71 71 76 79 79 77 74 75 73 69 68 66 61 66 79 83 78 82 90 89 85 88 87 77 70 70 69 63 56
97 95 92 87 85 85 85 85 83 79 74 66 57 51 48 46 42 36 31 29 26 23 22 22 24 25 23 22 23 25 27 28 26 27 32 33 33 42 60 73 74 67 65 63 56 53 52 50 60 80 88 86 91 95 90 86 88 84 77 75 76 79 80 76 74 79 81 74 71 70 67 71 82 86 79 75 82 88 90 90 91 86 78 72 62 54 56
99 96 93 91 89 87 86 86 84 81 75 67 59 53 49 47 44 37 31 29 28 25 21 19 21 22 18 15 18 22 26 29 29 26 24 25 29 35 47 62 65 56 51 53 50 50 52 50 56 78 90 85 83 85 83 83 86 84 81 83 82 79 79 77 73 77 83 82 77 75 74 75 80 87 85 76 73 81 85 86 88 82 70 63 61 61 64
100 98 96 94 92 89 87 86 85 81 77 69 61 54 49 48 45 38 32 31 30 27 23 19 18 18 17 17 22 26 29 30 29 26 22 21 24 30 37 46 52 51 51 51 47 49 53 49 52 71 84 80 77 78 79 82 85 82 79 82 82 79 78 78 77 79 83 85 82 80 81 82 81 85 88 81 73 75 81 84 86 83 71 62 65 71 71
100 100 98 96 96 92 87 86 85 83 77 71 62 55 51 49 45 39 35 34 31 27 24 20 17 15 18 22 26 29 31 30 25 22 23 25 27 30 35 40 44 47 49 48 47 51 53 49 49 60 68 72 78 81 77 78 81 79 75 77 79 77 75 77 80 82 82 84 85 80 78 83 84 80 79 77 73 72 77 80 81 80 76 71 71 75 72
100 101 99 98 98 94 87 85 86 84 79 72 63 56 52 49 45 40 37 34 30 26 24 21 18 15 17 21 25 25 26 26 24 21 21 28 35 38 39 40 42 42 42 44 45 46 47 48 50 51 53 63 77 79 72 74 79 76 72 75 79 77 73 74 79 81 79 81 83 77 70 75 82 77 72 73 74 74 74 76 79 80 78 74 72 70 65
100 100 100 100 98 94 89 88 89 86 80 73 64 57 54 50 45 41 37 32 28 26 24 22 19 18 18 19 22 25 26 26 24 21 24 36 47 48 45 44 43 43 46 48 47 45 46 47 46 42 45 60 75 77 72 75 78 73 71 76 78 74 70 70 73 75 75 78 81 76 69 72 81 83 79 75 76 77 73 71 76 83 81 75 68 63 59
100 100 100 100 99 97 94 92 91 87 81 73 64 58 55 50 44 40 36 31 28 27 26 23 19 19 21 20 22 28 32 31 28 28 38 53 59 58 57 53 49 51 57 60 60 61 59 50 40 38 49 68 83 84 81 78 74 67 66 68 68 68 72 74 74 74 74 76 76 69 62 68 82 89 87 79 75 76 75 74 78 81 78 73 67 61 61
100 100 100 100 100 100 98 96 93 88 82 74 65 60 56 51 44 39 34 31 29 26 25 23 19 19 21 22 27 33 35 35 39 45 55 64 63 62 67 67 61 64 71 71 73 76 68 54 43 41 51 69 81 82 79 76 69 62 60 61 63 68 74 75 73 73 73 73 72 68 66 74 86 92 91 88 84 78 75 78 82 81 76 73 68 62 59
100 100 100 100 101 101 99 98 94 89 84 75 67 62 58 51 43 38 34 31 28 26 25 24 21 20 21 26 37 44 40 40 48 53 57 63 63 62 69 71 66 70 76 76 78 77 68 59 53 46 48 62 72 70 67 65 61 58 58 59 62 67 69 68 69 73 75 72 70 67 67 74 84 89 88 87 87 84 79 81 84 80 73 70 68 64 60
100 101 100 100 101 101 100 99 96 90 84 76 67 62 57 49 43 39 34 30 26 25 27 26 23 23 23 26 37 45 43 45 53 53 52 59 63 64 69 69 64 64 66 67 69 68 61 60 59 52 50 61 67 63 58 55 51 52 55 57 60 61 61 62 66 69 72 73 68 63 59 62 73 86 90 88 89 91 89 88 86 79 70 67 67 65 61
100 101 100 100 101 100 100 99 95 89 82 74 66 61 54 47 41 36 31 30 29 27 28 27 25 26 25 22 30 41 43 45 50 50 49 57 62 62 63 63 61 62 61 57 58 57 54 58 61 54 51 56 59 58 57 50 44 46 49 53 59 62 60 62 64 65 69 75 71 64 59 57 64 78 86 86 89 94 92 88 85 82 76 70 67 66 64
100 100 100 100 101 100 100 99 93 86 79 71 64 59 53 46 41 37 33 33 32 30 30 30 29 31 30 24 25 32 35 40 47 50 50 55 58 58 58 58 58 60 59 54 53 53 52 56 59 55 51 52 53 53 52 47 42 44 47 50 57 62 60 60 61 63 69 74 71 64 59 54 57 68 75 77 84 91 90 85 86 89 84 73 66 63 61
100 100 101 100 100 100 100 96 89 82 77 71 65 59 53 48 45 41 36 33 33 35 37 37 38 42 41 35 32 33 36 45 54 55 54 57 57 56 59 60 57 55 53 50 50 51 49 50 54 55 54 54 52 50 49 46 43 46 51 54 57 58 56 54 56 60 67 70 67 65 62 55 53 61 69 75 82 89 90 87 86 88 84 74 65 62 59
99 100 100 100 100 101 99 94 86 80 75 72 67 60 55 51 46 41 38 39 41 44 45 47 52 56 54 52 54 56 54 56 58 55 56 63 63 57 56 57 55 54 52 49 47 46 45 46 50 51 51 52 54 53 51 52 55 59 59 56 55 55 54 49 47 52 60 63 63 64 64 61 62 67 72 77 81 87 90 89 87 86 84 77 71 67 63
98 98 99 100 100 99 95 91 86 81 75 72 68 62 55 50 44 41 43 48 49 50 53 58 64 69 68 68 71 73 70 66 66 66 67 67 63 56 54 57 61 59 55 51 48 44 42 44 47 49 53 59 62 59 55 58 68 71 64 56 54 55 51 47 48 52 55 57 61 64 62 62 69 77 81 82 85 89 90 87 85 86 87 82 79 79 74
97 98 99 99 99 98 94 90 87 84 79 75 69 61 52 47 47 49 51 50 50 55 63 67 69 74 78 74 69 72 78 79 77 78 74 65 61 60 59 60 63 62 56 53 50 45 44 45 44 48 61 70 70 66 66 69 73 72 66 60 57 51 47 52 63 66 61 58 63 64 58 58 69 80 87 90 92 91 88 86 88 90 87 82 79 77 70
97 99 100 100 99 97 94 90 87 86 82 75 65 56 50 51 56 59 54 49 54 64 72 73 72 76 84 83 74 74 80 79 77 79 75 63 60 67 67 64 66 66 61 55 50 47 48 48 43 49 69 84 83 80 79 77 76 75 75 73 67 56 49 52 60 66 69 72 73 68 61 61 70 80 89 96 98 91 86 89 95 93 86 82 77 63 48
99 99 99 99 99 97 94 91 87 84 79 70 62 59 58 58 61 63 59 57 65 75 79 77 74 76 84 87 81 76 75 72 73 79 77 66 64 73 76 73 74 73 67 60 56 53 51 49 49 59 78 90 93 89 81 75 74 74 73 70 65 56 47 45 52 66 79 84 83 78 71 65 68 77 86 92 92 89 87 91 94 88 80 76 70 54 37
98 97 97 99 98 95 93 90 84 78 74 69 66 67 65 59 58 63 65 65 68 72 75 75 76 78 79 78 75 76 78 77 75 76 75 70 69 73 76 77 78 76 72 67 63 58 53 55 68 82 87 86 87 85 78 73 71 67 60 56 56 54 50 47 55 72 83 83 81 81 74 64 63 69 74 74 73 74 78 82 84 81 75 68 61 51 40
97 98 99 99 96 92 89 87 82 77 75 73 69 66 62 57 58 65 72 73 72 73 75 77 80 82 80 77 75 73 70 68 70 74 76 75 74 76 80 84 83 80 77 72 67 63 61 66 80 93 93 87 85 82 77 72 67 60 53 49 50 54 56 54 57 70 81 83 81 78 73 68 66 62 59 59 61 61 62 63 61 57 53 49 46 41 37
99 100 100 97 93 90 87 85 83 80 76 73 70 64 59 59 64 70 75 78 80 80 80 81 84 84 82 81 79 71 63 65 75 81 81 79 80 82 85 87 85 83 81 77 74 74 76 78 84 91 92 88 84 80 77 74 68 60 54 48 44 46 51 54 58 66 71 73 73 70 68 72 77 70 57 51 51 49 45 43 40 35 31 29 27 29 36
99 98 96 93 90 88 84 83 82 77 69 67 69 69 67 70 74 76 78 82 84 83 80 80 81 81 80 79 76 70 69 75 81 79 76 78 81 81 82 84 84 84 83 79 75 78 83 86 89 92 91 88 85 83 83 79 70 61 55 48 42 41 43 47 55 64 68 68 71 72 70 73 81 80 65 48 43 44 41 34 30 30 34 37 37 36 40
99 96 93 89 86 82 80 79 76 69 64 68 74 76 75 76 76 75 76 79 81 81 80 79 78 75 70 66 64 62 67 76 80 77 78 82 82 80 82 84 84 84 84 82 81 84 89 92 95 95 91 86 83 83 83 80 73 65 58 51 45 43 41 41 48 62 75 79 80 80 77 74 78 83 75 54 42 41 39 32 30 34 39 48 58 60 55
98 95 91 87 83 79 74 71 66 61 62 69 73 73 73 74 74 75 77 78 79 78 77 76 74 67 59 59 64 68 73 81 86 83 81 81 80 79 81 83 82 85 89 91 92 95 97 97 97 96 91 84 79 78 80 80 77 72 66 60 53 48 45 42 43 54 68 77 80 82 83 79 77 81 78 61 44 39 38 37 38 41 42 48 62 72 70
94 91 86 84 82 75 67 65 66 66 69 75 76 73 72 73 74 75 77 78 79 77 74 72 68 59 51 56 69 75 77 81 82 77 74 77 81 83 85 86 87 90 95 98 99 100 100 100 99 96 90 82 76 74 76 77 76 73 71 68 62 56 52 49 48 49 56 65 71 77 84 87 83 79 75 66 55 50 47 44 44 48 56 64 70 70 68
93 91 87 83 77 66 58 59 64 66 70 76 78 75 74 76 78 80 82 80 79 79 79 79 76 68 62 67 74 75 74 78 82 80 79 82 85 88 91 91 92 95 98 100 100 100 99 99 99 95 87 79 73 73 74 73 71 70 71 70 67 63 58 54 52 52 55 60 64 70 83 92 89 78 74 76 74 67 60 58 58 59 66 74 77 76 75
93 90 83 75 66 59 60 67 73 76 79 81 79 77 77 79 81 85 88 86 82 81 81 80 78 76 80 87 90 84 80 82 86 86 84 84 86 90 94 97 98 100 101 101 100 98 95 91 87 81 76 70 67 69 73 74 69 67 69 70 70 67 63 58 56 58 62 65 68 74 84 91 89 83 85 92 93 84 74 70 70 71 74 78 81 85 89
89 81 74 68 63 63 70 78 83 85 86 84 80 78 80 82 84 90 95 93 87 83 79 76 76 80 85 93 97 95 91 89 87 86 87 88 90 93 96 99 100 100 100 100 100 96 90 84 77 70 65 63 60 60 65 69 68 66 66 68 71 71 68 62 58 60 63 67 72 78 83 86 88 90 93 93 91 85 74 61 61 73 82 80 76 80 84
81 70 63 60 60 62 70 79 85 89 90 88 85 84 84 84 86 90 90 86 81 78 76 77 81 86 88 91 95 96 93 89 88 89 92 96 97 98 99 100 100 101 101 100 96 89 82 78 73 66 61 60 58 56 57 61 63 63 63 65 71 77 77 71 65 61 62 65 70 77 82 84 85 87 88 85 82 79 70 59 60 74 83 79 77 84 89
Wind_Speed
25 26 26 25 25 26 26 26 26 27 27 26 26 25 24 24 22 19 17 18 21 23 22 22 23 23 22 23 23 23 25 26 27 27 26 28 29 29 31 30 27 30 31 25 20 18 20 20 18 19 20 20 21 15 11 12 9 15 21 21 21 21 19 15 15 18 19 18 18 19 23 25 25 26 29 27 24 26 22 14 13 11 12 14 8 9 20
25 26 26 26 26 26 26 27 27 27 28 28 27 26 24 22 20 18 19 21 22 21 21 23 24 23 24 24 24 24 25 27 29 28 28 30 32 33 33 30 29 32 30 23 19 18 17 17 15 15 20 21 17 12 17 18 13 16 19 18 18 19 19 17 12 10 9 9 12 16 20 23 24 24 26 26 26 26 22 20 21 13 11 15 6 6 23
25 26 26 26 26 26 26 27 27 27 28 28 28 27 25 22 19 19 22 23 22 19 20 24 24 23 25 24 23 26 27 27 27 28 28 27 30 35 35 32 33 34 31 25 21 14 14 19 18 14 16 15 8 7 17 20 20 20 16 13 16 16 13 15 13 5 2 3 7 14 19 22 24 22 22 25 28 29 25 21 19 13 14 21 18 16 23
25 26 26 26 26 25 26 27 27 27 27 27 28 27 25 23 20 22 25 23 20 19 21 22 22 24 27 25 25 29 31 29 27 29 29 27 31 34 32 33 36 34 29 27 25 18 12 16 17 13 13 10 7 2 11 20 21 20 15 11 15 16 11 13 14 11 11 12 9 11 13 18 24 24 22 25 29 30 28 22 16 16 17 20 24 26 26
25 25 26 26 26 25 25 26 27 27 27 27 28 27 26 24 21 22 23 21 20 22 22 19 20 24 24 25 28 29 30 31 31 30 28 28 32 33 31 35 37 31 27 27 29 28 18 12 14 13 9 5 7 5 7 20 20 16 13 13 14 13 12 14 16 15 17 19 15 12 13 16 22 24 23 27 29 29 28 26 22 19 14 14 20 22 22
25 26 26 26 26 25 25 25 26 27 27 26 26 26 26 26 23 21 22 21 21 23 21 16 17 18 18 23 28 28 28 31 31 30 29 28 29 29 32 39 37 30 30 32 34 33 23 15 14 11 8 8 8 6 9 15 15 13 12 13 13 11 11 15 18 18 17 18 16 11 12 15 18 23 26 27 29 30 30 31 28 22 16 16 18 16 17
24 25 26 26 26 25 25 25 25 26 28 28 28 27 25 25 24 21 21 21 20 19 18 15 14 13 17 22 24 24 27 27 27 28 29 29 28 27 33 38 35 32 34 36 36 33 24 17 13 8 4 4 4 6 8 8 9 11 11 12 13 11 11 11 13 18 18 16 14 10 11 15 19 23 28 28 29 32 32 31 29 27 26 26 22 20 22
24 25 26 26 26 26 25 25 24 24 26 27 28 27 27 27 26 23 21 18 16 16 15 16 15 11 15 19 18 19 23 25 27 27 26 28 30 28 33 34 32 34 35 36 36 30 22 17 11 4 2 3 3 6 9 7 9 13 12 11 12 10 10 10 11 16 17 14 13 14 16 19 19 20 25 28 30 30 30 31 31 31 32 30 25 25 26
23 24 25 26 26 26 26 25 24 24 23 24 24 24 25 27 27 28 26 20 16 17 16 15 15 11 12 17 19 22 24 24 28 25 20 25 29 29 32 31 29 32 35 35 34 28 22 18 9 2 3 1 2 5 8 7 10 15 12 8 9 10 11 12 12 14 15 12 10 14 16 18 19 18 20 26 31 30 31 32 33 33 32 29 24 23 25
23 23 24 25 26 26 26 26 26 25 24 23 23 22 23 24 24 26 28 24 20 19 19 17 14 12 13 18 19 21 22 21 23 23 22 25 25 24 28 29 28 31 34 32 29 24 20 16 7 4 6 3 1 4 7 7 10 15 12 8 10 12 13 11 7 9 13 13 11 13 14 12 15 16 15 19 26 31 32 32 31 32 30 28 24 21 22
24 23 24 25 26 26 26 27 26 26 26 25 25 24 24 25 25 25 27 26 22 21 21 17 14 14 14 17 17 18 20 18 17 21 27 26 20 18 25 28 27 31 32 26 21 19 17 12 5 7 9 6 3 6 9 8 9 13 15 15 15 13 13 12 8 8 12 15 15 13 9 7 12 16 14 14 19 25 31 33 32 31 29 27 24 21 18
24 24 24 24 25 26 26 27 27 27 27 27 27 26 25 26 27 27 29 28 25 24 23 17 14 17 18 18 19 19 20 19 16 17 23 22 16 17 22 27 29 30 28 23 18 16 14 9 4 7 9 8 6 7 12 12 11 11 13 17 19 16 15 13 9 8 9 13 12 7 3 9 16 16 13 13 15 18 25 33 34 32 30 27 25 25 22
24 24 24 24 25 26 26 27 27 27 27 27 27 27 26 26 27 27 29 30 26 24 24 19 16 20 22 22 23 21 19 18 15 14 16 15 13 15 21 27 29 26 25 23 17 13 11 7 4 6 8 10 10 10 14 15 14 14 13 16 21 19 16 12 8 6 6 8 6 2 6 13 15 14 16 17 16 15 17 24 31 34 31 28 26 25 23
24 24 24 24 25 26 26 26 27 26 26 27 27 27 27 26 27 28 29 30 26 21 21 23 22 24 25 24 23 20 17 15 13 12 11 13 12 14 20 26 25 21 23 22 15 12 11 9 4 3 6 10 10 10 13 14 14 13 11 14 21 22 17 11 6 4 4 7 8 9 13 16 12 9 13 14 13 13 11 18 26 33 30 28 27 24 22
25 24 24 24 24 25 25 26 27 26 26 26 26 27 27 26 26 28 29 31 29 21 19 22 24 25 25 21 19 19 18 17 16 12 9 10 9 11 18 23 20 19 20 17 15 14 13 12 9 6 3 6 7 8 10 11 13 13 10 10 14 18 16 10 6 5 5 7 8 7 7 9 10 13 11 9 10 11 8 16 23 29 27 26 27 25 24
25 24 24 24 24 25 25 25 26 26 26 26 26 27 27 27 27 27 28 31 30 23 19 21 23 24 24 21 18 19 20 19 19 15 11 11 11 13 18 17 15 19 19 13 15 16 14 12 9 6 5 6 7 8 9 8 8 10 9 8 8 9 8 7 6 7 7 7 6 3 4 8 13 20 16 12 10 6 5 12 19 22 22 25 28 27 25
26 25 24 24 24 24 25 25 25 26 26 25 25 26 27 27 27 27 27 30 29 23 20 23 23 24 25 23 18 17 17 18 18 17 16 16 16 18 19 15 14 19 20 15 15 17 16 14 12 9 8 9 9 9 9 8 8 8 9 9 9 8 7 9 10 11 11 12 10 9 11 14 16 18 15 11 8 3 3 7 12 16 17 21 28 30 28
26 25 24 23 24 24 24 25 25 26 26 26 25 26 27 27 27 27 28 30 29 23 18 21 24 25 25 23 18 16 16 17 17 17 15 15 16 18 19 17 16 20 22 20 19 19 19 18 15 11 11 12 10 9 8 7 8 8 8 10 12 13 13 13 13 14 14 14 13 14 17 19 17 15 13 11 8 5 6 7 10 15 14 13 18 25 29
25 25 24 22 23 24 24 25 26 26 26 26 24 25 26 27 27 28 27 29 29 23 17 20 24 23 21 18 15 14 14 15 16 17 16 14 14 15 14 13 15 20 23 22 20 21 22 21 17 11 12 15 15 13 11 9 8 9 8 9 13 15 14 13 12 13 14 16 16 15 16 16 13 11 11 10 8 9 10 10 10 16 18 15 15 18 22
24 25 23 22 22 23 24 25 26 26 26 26 25 24 25 26 27 28 27 28 29 24 19 21 23 19 16 15 13 13 13 11 11 15 16 15 15 16 14 12 15 20 23 23 22 22 22 22 19 13 12 16 17 16 15 10 5 6 10 11 10 10 11 12 13 12 12 13 12 9 10 13 13 12 12 11 10 9 12 13 10 13 19 21 21 18 15
24 24 23 21 21 23 24 25 26 26 26 27 25 24 24 25 27 27 27 28 29 26 21 20 19 17 15 14 13 15 16 13 11 12 13 13 13 15 15 14 16 19 20 20 20 20 20 20 18 14 13 15 15 16 19 16 9 4 7 10 10 8 9 11 13 10 8 9 9 8 13 17 17 16 14 9 6 6 11 13 9 11 17 21 22 21 17
24 23 22 21 21 22 23 24 26 26 26 27 27 25 24 25 26 28 28 28 29 27 22 18 17 17 16 14 14 16 18 15 11 11 13 12 9 7 8 10 10 11 14 17 17 18 18 18 17 15 14 14 15 16 18 19 17 11 8 8 9 9 11 14 15 12 10 12 15 16 19 19 16 16 15 8 4 5 8 9 7 9 16 18 17 19 20
24 22 22 22 21 22 23 24 25 26 26 26 26 25 25 25 26 27 28 28 29 26 21 16 16 16 13 13 15 17 18 17 12 10 12 12 6 1 4 7 6 5 9 15 17 18 18 16 15 15 13 12 14 17 17 18 20 18 13 11 9 9 12 15 15 13 11 12 15 17 20 21 17 13 12 9 5 6 6 5 5 8 14 15 15 17 19
24 22 22 22 22 22 23 23 24 25 26 26 26 25 25 25 26 27 27 27 28 26 19 14 15 17 16 16 15 15 15 17 16 12 12 13 9 2 0 4 8 7 8 11 14 15 17 15 13 13 13 11 11 15 18 19 20 20 19 15 9 8 9 12 14 14 14 13 15 16 18 21 18 10 4 5 5 6 8 4 3 2 10 12 13 16 18
24 23 22 23 23 23 23 23 24 24 25 25 25 26 26 25 26 27 27 27 27 27 21 15 14 17 21 19 16 13 12 13 14 14 12 11 9 4 2 3 8 11 9 9 11 13 15 16 13 11 12 12 11 15 20 20 20 21 20 18 13 9 10 11 13 15 16 16 17 17 15 16 15 11 5 5 6 5 7 2 7 5 3 6 8 12 17
24 23 23 23 24 24 23 24 24 24 24 25 25 26 26 25 25 26 27 27 26 26 24 20 16 16 20 19 15 11 10 10 11 14 14 11 7 6 5 6 7 9 9 9 10 12 14 15 13 12 12 12 14 17 18 19 20 21 18 17 19 17 15 15 16 17 18 17 16 16 13 11 10 13 11 8 7 6 5 3 8 9 6 4 4 1 8
24 24 23 24 25 24 24 24 24 23 24 24 24 25 26 25 25 25 25 26 26 26 26 24 18 15 15 15 13 10 9 10 12 13 12 10 7 6 6 6 7 7 8 9 10 11 13 14 14 13 13 13 15 16 16 18 20 19 16 17 20 20 20 20 19 19 19 17 15 15 14 12 10 11 11 10 7 8 7 4 6 8 8 9 11 11 7
25 24 24 25 25 24 24 24 23 24 24 23 23 24 25 25 25 25 24 25 27 27 28 27 23 18 13 10 11 12 10 9 11 11 8 6 7 9 8 7 7 7 8 10 10 11 12 13 14 13 12 12 14 15 14 16 19 18 17 18 17 17 19 20 18 18 17 16 15 16 15 12 10 8 9 10 7 8 8 4 3 6 8 8 9 11 11
25 24 25 25 25 24 24 23 24 24 24 24 23 23 24 24 24 24 24 25 27 29 30 28 25 21 17 13 11 10 10 10 11 10 5 5 7 10 11 11 11 10 11 13 13 13 14 13 13 13 11 10 13 15 15 18 20 18 17 18 17 17 19 19 17 17 15 13 14 14 13 12 10 7 5 5 3 2 4 4 2 7 7 5 6 7 8
25 25 25 25 24 23 23 23 24 24 24 24 23 22 23 24 23 23 24 25 26 28 30 30 26 21 16 14 12 9 8 9 8 6 6 8 9 10 10 12 12 12 14 15 16 17 18 15 14 11 7 6 12 17 17 19 21 16 13 15 18 19 17 16 17 17 17 16 14 12 10 11 10 6 2 2 2 5 5 4 4 6 5 5 6 5 5
25 25 24 23 23 23 23 23 24 24 23 23 23 23 23 24 24 23 23 24 25 26 27 30 28 22 15 12 12 11 7 3 1 3 7 10 11 10 9 10 10 10 13 16 18 20 21 19 16 10 4 5 11 15 16 18 19 15 13 15 17 16 14 15 17 17 16 16 14 11 10 11 9 6 2 1 4 5 5 4 4 4 3 3 5 6 4
25 25 24 22 22 23 23 23 24 24 23 23 23 22 23 22 22 22 23 23 24 26 27 27 27 23 17 12 11 11 7 1 1 2 6 10 11 9 7 8 10 10 12 15 18 21 21 20 18 13 7 8 11 15 16 17 17 13 12 13 15 15 16 18 17 15 13 11 9 8 10 10 10 8 5 2 3 4 5 4 3 1 1 2 3 5 4
25 24 23 23 23 23 23 23 24 24 23 22 21 21 22 21 20 21 22 22 23 24 25 26 25 22 18 13 11 11 7 3 2 3 3 8 12 12 10 11 13 13 13 14 16 19 19 18 16 13 8 7 11 16 17 16 14 13 12 12 14 16 18 18 14 12 13 11 9 10 11 10 10 9 7 6 6 5 5 2 2 4 4 3 3 5 5
24 24 23 23 23 22 22 22 23 23 22 21 19 19 19 19 20 21 21 22 22 22 22 23 23 22 19 15 11 11 10 6 5 5 2 3 8 12 11 12 15 16 15 15 16 17 17 14 13 12 8 6 10 16 16 14 16 18 15 12 12 13 16 16 12 11 13 13 11 11 12 10 9 8 5 4 4 4 3 1 2 4 7 8 6 6 7
23 23 22 21 21 21 21 21 22 22 21 19 17 17 17 17 18 19 20 20 21 21 21 22 22 22 21 17 12 11 10 8 7 8 8 6 7 8 8 10 13 14 15 16 16 16 15 13 12 12 9 6 9 14 15 14 18 18 12 9 9 11 15 17 14 12 13 13 11 11 11 10 8 7 5 4 1 1 2 3 2 3 8 11 10 10 9
22 21 20 19 19 19 19 20 21 20 20 18 15 16 18 18 18 18 19 20 20 19 19 18 17 17 18 19 17 14 11 8 8 9 9 8 8 7 6 9 12 12 12 15 16 16 16 16 14 12 10 9 12 15 15 15 17 15 10 8 9 12 16 20 19 16 13 12 10 10 10 10 9 8 7 5 3 3 4 3 3 5 9 12 12 12 11
19 18 18 18 18 18 18 19 19 17 16 17 17 17 18 19 19 19 18 17 17 16 14 13 13 13 14 16 16 14 12 10 9 8 7 8 9 8 7 9 12 11 11 13 14 14 15 16 14 13 12 12 14 16 15 12 12 12 10 11 13 15 17 19 20 17 12 8 8 10 10 9 7 7 7 7 6 6 6 6 6 9 11 12 13 12 10
18 17 17 17 18 18 17 18 17 16 15 17 18 18 18 19 20 19 16 14 12 11 9 10 11 12 12 13 13 12 11 12 13 12 12 13 14 12 9 9 10 10 11 12 11 10 12 12 10 10 11 10 12 14 13 9 6 7 9 12 14 15 14 14 16 16 12 8 7 9 10 8 5 4 7 8 8 9 10 9 9 11 12 12 12 12 10
17 17 17 18 18 17 15 15 15 16 16 17 17 18 18 18 18 17 14 12 9 7 8 10 11 10 10 13 12 10 10 13 15 16 17 17 15 14 12 11 10 10 12 11 8 7 9 9 7 7 9 8 7 7 7 7 6 6 8 10 13 12 9 9 11 11 9 7 6 7 7 5 2 3 6 8 9 10 10 8 7 8 9 10 11 11 11
17 16 16 17 17 16 15 13 14 15 17 17 17 17 17 15 13 13 12 11 10 8 9 12 12 9 11 14 13 10 10 12 15 18 20 17 13 12 13 13 13 14 14 12 9 8 11 11 9 7 6 5 4 2 2 3 4 4 4 7 11 12 10 9 11 10 7 5 5 6 5 3 1 1 5 8 10 9 7 4 4 6 7 9 9 9 9
17 16 16 15 15 15 15 14 13 13 15 16 16 15 13 10 9 9 9 9 9 9 9 11 11 9 10 12 13 13 14 14 14 16 18 16 13 11 13 15 15 13 13 12 11 10 11 12 9 5 3 5 6 5 4 5 6 6 6 8 11 13 12 12 13 12 8 7 6 5 4 1 2 1 2 6 9 8 6 4 5 7 7 9 10 8 8
17 16 15 14 14 14 14 14 13 12 13 13 12 10 9 7 6 7 8 7 7 7 8 9 10 10 10 11 12 13 14 15 16 16 16 16 15 14 15 15 14 12 12 14 13 12 11 11 8 4 5 8 10 9 8 9 9 10 10 11 12 13 13 12 12 12 11 6 5 7 4 1 1 1 3 4 6 7 7 7 8 8 8 10 10 9 9
16 15 14 13 12 12 11 11 11 9 8 9 8 7 7 5 4 7 7 5 4 5 7 8 9 13 14 14 14 15 16 16 15 14 14 15 15 14 13 14 13 13 15 16 15 13 13 12 9 7 9 12 12 11 11 11 10 10 11 12 12 12 12 12 10 9 11 12 7 3 3 1 2 4 6 5 5 6 7 6 7 7 9 10 11 10 11
14 13 12 12 11 10 9 9 9 8 7 6 6 5 4 3 6 7 8 9 8 9 12 14 16 18 18 18 20 20 17 13 11 12 12 13 13 12 12 14 15 15 16 16 14 13 13 12 11 11 13 14 15 15 13 12 12 12 13 13 13 11 10 11 10 10 11 12 10 6 5 5 4 5 7 6 5 6 7 7 8 8 9 11 11 11 11
13 12 11 10 10 9 7 5 6 6 4 3 4 4 4 5 8 9 10 10 10 12 15 18 19 21 21 22 23 20 15 11 12 13 12 12 13 13 13 15 16 17 17 16 15 13 13 12 12 13 14 14 15 15 13 11 11 13 13 13 13 11 10 10 10 10 11 11 10 8 8 6 4 4 7 8 7 7 8 8 8 9 9 9 10 11 11
12 11 10 9 9 9 8 7 7 6 3 1 4 8 8 8 11 13 14 15 16 17 18 19 21 23 24 23 20 15 11 10 12 13 11 12 15 15 15 15 16 15 14 14 13 13 13 12 12 12 13 13 14 12 10 9 11 13 13 13 13 12 11 11 10 9 9 9 9 8 9 8 5 4 6 8 9 9 9 8 7 8 9 8 9 10 11
10 10 9 8 7 8 7 5 4 4 2 2 5 8 10 13 16 17 17 18 20 21 21 22 23 24 22 19 15 11 9 11 13 14 13 14 16 17 16 16 15 13 12 12 11 11 11 13 13 14 14 14 14 12 11 11 14 15 16 15 14 13 12 12 10 9 8 9 8 8 9 9 7 5 5 7 8 8 8 8 8 9 10 9 8 9 11
10 11 10 7 7 7 5 3 4 6 4 4 7 9 12 15 17 17 17 19 20 21 23 24 23 21 17 12 11 11 10 11 13 13 11 11 13 14 13 12 11 11 10 9 7 7 8 11 13 14 15 15 16 16 14 13 14 16 17 18 17 15 13 12 10 9 9 9 9 9 10 10 9 7 5 6 7 7 6 7 8 9 9 9 9 10 12
10 10 10 9 8 6 4 5 7 7 6 6 7 10 12 14 14 16 19 21 21 22 22 22 21 19 13 9 9 11 10 9 10 10 10 10 11 12 12 11 10 9 8 7 8 9 12 13 15 16 16 17 18 18 16 15 14 15 16 17 17 15 13 12 11 11 10 10 10 11 12 13 12 8 4 2 5 7 7 6 5 5 7 9 9 10 11
10 10 10 9 7 4 5 7 7 5 3 3 6 10 13 14 15 18 20 20 21 22 21 20 19 16 12 9 10 12 10 7 8 10 11 12 13 14 13 11 9 7 7 8 11 15 18 19 20 21 20 19 19 18 17 16 16 16 16 16 16 15 14 13 12 11 10 10 11 12 12 14 13 11 10 7 3 3 4 4 4 4 6 9 9 9 10
10 9 8 7 6 6 7 7 5 4 5 6 10 14 17 16 15 17 20 22 23 23 22 19 17 14 12 10 10 10 10 9 10 10 10 12 13 12 10 8 7 7 9 12 15 18 21 23 23 23 23 23 22 21 20 19 18 17 17 17 16 15 14 14 13 12 10 11 11 12 13 14 14 13 12 10 7 5 5 6 6 5 8 9 9 7 8
8 7 8 8 7 7 8 7 5 7 10 13 15 17 19 18 18 21 24 24 23 21 18 14 11 11 11 11 12 12 12 13 12 10 11 12 11 8 6 7 9 12 14 17 18 20 22 24 25 25 25 25 25 24 23 22 21 20 19 18 17 16 14 14 14 13 13 13 13 13 14 16 15 13 9 6 6 8 10 9 7 7 7 8 7 5 4
Wind_Direction
352 348 348 349 351 352 354 355 355 357 358 358 359 357 354 352 351 355 356 347 344 341 339 342 340 341 346 343 343 343 340 341 341 336 335 334 329 324 322 318 320 322 315 301 291 288 287 281 272 273 272 269 274 264 192 174 213 218 210 207 203 211 223 232 256 282 278 256 238 225 220 222 224 225 231 236 235 244 250 231 221 235 229 222 222 254 249
352 349 347 347 350 351 352 354 354 355 357 358 359 359 357 352 346 349 354 351 349 346 341 338 336 338 339 338 344 349 348 349 344 341 346 342 330 327 329 331 337 338 331 322 312 302 288 280 278 270 270 284 295 259 197 179 195 202 196 200 203 205 213 223 251 302 302 256 224 220 224 224 224 225 229 237 241 247 253 241 233 247 251 239 220 235 248
351 349 348 347 348 350 350 352 353 354 356 357 357 360 359 352 345 347 349 349 348 348 342 335 333 336 335 336 346 350 351 355 352 348 352 346 332 332 338 341 346 348 343 342 343 324 285 279 283 278 281 302 324 230 202 194 198 194 185 200 208 203 204 213 225 246 263 238 224 225 228 222 224 230 231 238 244 247 255 252 233 226 239 241 241 252 254
349 349 349 347 348 349 349 350 351 353 355 355 356 359 359 354 347 342 342 344 344 346 346 338 331 332 331 330 339 344 348 354 355 355 354 344 334 337 342 343 345 348 348 350 357 354 317 292 294 300 306 324 8 333 208 193 192 185 180 201 203 197 206 216 223 237 254 268 255 228 233 226 222 226 228 235 240 240 248 257 241 225 232 239 241 250 258
348 348 348 347 348 349 349 349 348 350 353 354 355 357 358 357 351 340 339 342 341 342 345 339 327 324 320 321 330 337 345 349 350 353 350 338 336 340 344 342 340 346 354 352 353 359 360 342 335 341 349 31 58 33 181 177 174 170 181 206 201 196 218 232 242 255 263 271 271 258 262 253 233 228 228 232 233 233 244 254 246 234 238 253 250 250 260
347 347 347 346 346 348 350 349 347 348 349 351 355 357 356 356 353 345 341 340 338 338 341 337 328 327 325 324 327 333 342 344 342 343 340 337 342 343 340 339 338 348 1 355 350 358 9 10 7 16 44 82 95 101 147 161 162 165 189 210 203 205 231 239 256 276 281 278 275 264 252 247 241 234 231 231 231 233 242 245 242 244 251 259 261 260 263
347 346 345 346 345 345 349 350 348 348 346 348 354 356 354 352 353 352 344 339 336 334 336 332 325 343 350 337 333 336 337 332 328 332 335 340 351 347 335 337 347 356 359 352 347 355 5 8 14 33 43 36 72 128 157 165 167 176 197 209 201 213 236 240 263 284 288 280 270 263 257 260 260 242 229 227 231 236 242 242 243 251 253 254 262 265 262
345 345 344 345 344 344 346 348 349 350 347 347 349 350 350 349 350 353 350 346 340 335 337 328 317 341 353 332 322 324 321 317 320 330 338 342 350 345 332 340 356 357 351 345 342 351 2 2 3 12 332 346 54 129 160 175 182 183 190 198 202 221 243 252 272 284 288 282 268 266 267 267 267 249 229 226 229 235 242 244 246 250 250 254 264 264 258
341 343 343 344 343 342 344 345 347 349 349 348 346 346 348 347 346 348 349 354 353 343 344 336 321 329 330 311 304 307 311 318 324 330 342 345 345 337 332 347 2 353 345 341 339 350 2 358 349 304 261 295 84 136 149 160 190 193 185 188 219 245 255 261 278 290 297 302 289 281 278 268 261 253 237 226 226 233 239 240 243 246 250 256 262 259 250
337 340 342 343 342 341 342 343 345 346 347 348 346 346 347 346 347 345 344 353 359 349 348 345 328 317 309 303 304 307 313 324 331 334 340 342 340 336 338 354 0 346 340 338 337 347 355 349 337 231 211 202 231 202 172 164 195 210 218 227 240 250 249 248 269 300 308 319 315 298 298 289 265 260 257 240 231 234 238 239 240 243 249 257 257 251 247
334 337 339 341 341 340 341 342 343 344 346 347 347 348 348 347 349 346 343 352 359 350 348 349 332 322 318 313 315 318 320 327 338 338 331 330 342 352 351 354 349 339 338 337 337 345 345 336 306 230 211 201 231 222 203 199 204 218 232 236 234 241 245 248 270 300 307 320 325 320 318 294 261 262 271 262 247 243 242 242 243 244 246 250 249 241 236
331 333 336 339 339 339 340 341 342 342 344 346 346 347 349 347 347 347 344 349 356 348 345 351 336 324 327 326 327 330 328 327 334 332 323 325 348 8 359 347 340 339 339 337 340 346 343 331 282 230 212 211 232 218 210 216 210 210 228 233 230 234 240 248 270 296 295 306 323 336 302 258 259 259 254 253 257 254 250 248 247 248 246 243 245 240 232
329 330 333 337 338 338 339 340 341 341 342 345 345 345 348 348 346 347 344 346 354 348 341 346 339 327 333 334 330 330 327 326 332 334 332 337 356 16 4 343 336 339 337 332 340 353 354 344 289 247 224 225 235 225 215 214 208 207 224 234 231 233 238 243 264 292 296 306 313 276 274 284 279 261 248 254 256 248 256 262 251 246 248 244 246 246 233
328 328 330 334 336 337 338 339 340 340 340 342 344 343 346 347 346 347 344 343 352 352 339 339 339 336 339 335 327 327 329 332 337 340 351 357 360 17 4 339 335 346 340 337 354 11 15 21 2 277 239 237 244 238 227 223 222 226 246 252 238 233 233 236 252 278 295 304 291 282 299 309 307 276 259 267 256 234 268 293 261 240 242 244 246 249 235
326 326 327 332 334 334 337 338 338 339 338 340 343 342 343 347 347 347 343 341 348 355 344 335 333 335 339 335 330 332 334 338 339 343 6 4 347 7 0 338 342 0 351 353 21 24 20 25 19 3 318 280 280 273 259 254 249 247 268 284 251 233 233 241 262 290 303 300 287 289 303 308 324 323 296 258 234 225 265 293 261 237 237 242 244 249 242
323 324 325 329 331 332 335 336 336 336 336 338 342 341 340 344 345 346 344 342 346 352 344 332 328 331 336 340 338 333 331 335 336 338 360 3 350 3 4 349 359 14 5 10 32 27 28 35 27 17 0 334 322 304 286 282 275 260 262 277 257 232 241 267 282 284 281 269 256 252 255 271 310 322 301 251 232 226 247 270 256 239 237 239 239 244 244
320 322 324 326 328 330 333 334 334 334 334 337 341 340 339 342 343 344 345 342 344 349 341 332 334 336 336 338 338 333 331 337 337 335 345 356 356 1 4 3 17 24 18 21 30 30 33 37 32 27 19 7 351 325 303 298 300 279 251 244 243 241 260 281 280 276 274 267 260 264 270 282 308 322 307 277 269 251 206 241 242 228 223 227 231 236 238
318 320 322 323 325 328 332 333 332 332 332 335 339 339 338 339 340 342 343 340 343 351 347 335 337 338 333 331 337 339 337 340 340 333 337 353 357 356 0 6 13 23 26 24 26 29 28 25 24 20 16 16 13 356 338 327 318 299 258 236 240 252 264 272 269 268 269 268 267 270 279 292 309 322 317 302 287 252 220 223 228 219 207 203 216 226 232
315 318 319 321 322 326 330 331 331 331 331 333 337 338 337 337 338 340 342 339 340 351 353 336 334 337 332 329 336 341 340 342 337 330 334 351 355 352 359 5 4 14 22 21 24 26 20 15 19 17 7 11 12 5 351 335 331 336 318 265 243 246 249 250 258 267 269 270 271 275 287 303 317 324 311 285 253 232 223 220 229 228 219 211 209 211 223
311 315 316 317 319 323 328 329 329 329 329 330 334 337 336 336 336 338 339 337 338 348 353 338 334 339 338 333 335 336 338 339 328 322 330 341 344 348 360 6 3 10 14 12 16 20 13 8 13 10 359 3 7 3 351 329 312 350 338 307 274 262 256 252 259 269 270 267 263 268 300 319 328 329 307 269 244 234 219 215 232 237 227 225 221 210 213
306 310 312 314 317 321 325 327 327 327 328 328 331 334 335 334 334 335 337 335 335 343 348 340 339 345 341 332 329 330 333 337 333 327 329 334 341 352 359 360 1 5 3 357 1 7 4 3 7 1 352 355 360 1 356 342 320 310 318 306 291 291 306 301 286 276 274 274 269 282 309 316 317 316 304 270 244 253 232 220 233 244 234 230 225 218 217
301 305 308 310 314 318 321 324 325 325 326 327 328 331 333 333 333 334 335 334 334 339 345 344 343 344 337 327 321 320 321 324 325 324 322 325 337 353 350 352 7 9 352 339 342 350 352 355 358 353 351 356 353 352 354 349 338 327 315 307 293 290 313 314 296 284 290 290 285 289 295 294 290 296 301 284 217 227 230 209 204 233 239 238 234 229 224
296 299 304 306 310 315 319 321 322 323 324 325 326 328 329 331 332 333 333 332 334 339 346 348 343 340 332 320 312 307 307 308 311 313 310 309 312 340 333 333 351 7 339 324 325 334 338 344 350 347 349 358 348 339 345 351 349 345 337 324 306 295 308 305 291 293 306 292 279 284 289 288 288 295 307 303 256 214 208 184 171 216 236 244 245 235 222
291 293 298 302 306 311 315 318 320 321 322 323 325 325 327 329 330 331 331 331 333 339 347 354 346 335 326 320 312 302 297 302 308 310 300 294 292 277 173 304 309 320 323 313 314 323 327 335 347 346 347 359 350 337 339 344 345 347 345 337 317 291 299 300 290 302 320 309 293 296 298 297 301 305 303 302 284 228 207 181 97 216 238 242 245 239 227
288 288 293 297 302 307 311 315 317 319 320 323 324 324 325 328 329 330 331 331 331 333 340 356 356 333 322 323 322 312 300 294 297 302 301 293 288 275 212 244 286 302 313 313 312 316 320 329 341 345 347 359 357 340 334 333 333 337 342 347 345 322 307 306 297 302 318 319 316 319 309 296 310 336 344 322 314 265 226 181 54 43 261 244 247 243 230
286 285 289 293 297 302 307 311 315 317 318 321 322 321 322 325 327 329 330 330 329 328 331 343 354 338 324 324 327 320 309 299 296 298 298 294 287 268 241 233 258 283 302 308 307 311 315 322 333 338 340 350 349 336 326 323 326 328 331 344 352 345 333 327 318 313 315 314 318 331 323 303 326 354 351 326 305 284 274 353 46 51 48 39 25 309 219
285 283 286 290 293 297 302 308 312 315 317 320 321 320 319 322 325 328 329 327 326 327 328 333 344 345 333 327 328 326 314 305 302 295 282 278 283 275 254 236 241 263 285 295 301 309 312 318 327 330 329 332 331 324 319 317 319 324 331 341 348 348 344 337 327 321 320 318 319 328 326 323 341 354 346 329 297 271 285 340 44 55 55 53 44 40 51
285 282 284 287 290 293 299 306 310 312 316 319 319 318 318 321 324 327 328 325 325 327 329 332 342 351 347 332 324 321 314 307 304 295 277 273 293 294 288 278 264 265 285 298 305 310 311 313 318 319 322 324 315 310 317 318 315 322 336 337 336 341 341 338 331 325 328 332 328 319 315 320 329 334 334 331 307 264 260 266 60 49 45 55 48 36 39
286 283 283 286 288 290 297 304 308 310 314 317 317 316 317 319 322 325 326 326 327 329 329 332 342 351 347 336 329 323 320 318 310 302 314 344 326 311 307 302 296 298 305 307 311 316 315 312 311 314 326 331 314 310 320 320 313 318 328 327 329 338 340 340 339 334 333 336 327 315 312 310 302 295 313 328 325 231 225 222 58 32 23 29 30 26 34
286 284 284 285 286 289 295 301 304 308 312 314 315 316 316 318 321 323 324 325 327 328 326 327 337 348 344 333 333 336 330 321 315 326 7 11 350 335 324 311 306 306 306 307 313 317 317 318 318 319 333 336 313 309 313 309 306 315 330 329 331 337 339 340 342 337 331 329 323 318 319 310 295 286 298 332 55 97 133 146 66 26 6 353 350 349 17
288 286 285 284 284 286 290 295 300 306 311 312 313 316 317 319 320 321 322 323 324 324 322 322 329 341 345 334 332 340 343 326 294 32 27 7 347 335 324 318 319 310 301 306 312 310 311 320 323 316 329 347 318 306 304 303 304 321 346 339 329 330 333 335 337 335 330 328 328 327 322 316 314 319 334 39 65 78 109 114 63 22 339 333 339 331 344
289 287 284 282 281 282 287 293 298 303 307 311 313 314 314 316 318 318 319 322 321 320 320 321 324 333 343 344 335 334 346 45 172 351 19 10 350 330 317 330 338 320 295 293 293 292 300 315 319 313 324 344 323 307 306 308 311 328 349 336 317 319 326 326 329 337 336 328 326 327 320 319 325 333 342 19 56 76 93 90 58 357 297 304 316 313 318
288 286 283 280 280 282 287 292 296 300 306 310 312 311 311 314 316 316 316 318 318 317 317 318 321 327 335 339 326 313 319 357 328 298 16 22 355 333 321 325 326 315 299 289 285 288 300 311 313 309 313 320 311 305 306 313 326 343 350 330 310 312 318 316 318 336 341 331 325 326 323 317 320 332 356 16 22 53 87 95 286 286 293 300 298 288 279
286 285 283 283 283 285 288 291 293 298 304 308 309 309 310 312 314 314 314 316 317 316 316 316 319 324 327 331 329 316 311 312 297 277 268 7 338 318 303 299 301 298 296 297 298 300 306 314 317 313 310 303 298 295 296 315 338 340 329 315 310 316 318 316 318 332 336 332 326 320 316 314 316 325 347 7 20 57 97 187 259 286 285 278 275 268 253
286 286 287 287 287 287 288 289 291 296 302 307 307 305 305 306 307 310 314 316 315 315 315 316 319 323 324 326 332 329 318 306 286 278 275 279 291 291 284 290 298 295 292 299 305 305 306 316 324 322 318 309 296 292 296 319 337 337 325 311 308 308 309 312 316 322 327 328 321 308 302 303 303 297 289 293 321 119 182 220 226 268 274 269 266 261 250
287 289 289 287 287 287 285 286 291 298 303 305 302 300 303 306 309 313 317 317 315 314 315 318 323 326 325 327 332 333 330 319 295 286 288 290 289 280 268 280 293 295 291 294 298 301 305 309 310 311 315 309 298 297 301 310 318 320 315 304 298 297 300 305 309 315 323 327 325 321 314 307 296 277 262 261 260 231 219 216 219 244 257 262 264 260 251
286 287 286 285 285 283 282 285 293 299 301 300 302 305 308 309 312 317 319 317 316 317 321 330 337 335 332 338 342 338 335 339 338 334 339 329 312 301 290 289 294 295 288 285 288 296 301 295 287 294 309 308 297 294 296 303 313 314 297 285 294 304 305 303 304 309 314 319 331 335 327 314 302 284 264 250 237 218 195 181 206 232 242 251 261 265 262
284 283 284 283 282 281 283 290 297 300 300 302 306 311 313 313 316 319 321 320 322 325 332 343 350 347 342 348 352 343 337 348 357 351 337 322 315 315 314 308 306 304 296 291 294 302 301 288 278 288 297 292 287 288 283 278 303 318 297 287 295 303 303 300 301 302 302 307 327 330 319 311 306 281 264 255 236 214 195 187 211 237 246 249 255 264 273
284 284 283 282 282 283 287 293 297 300 303 306 309 311 313 316 318 320 322 325 331 341 349 350 354 356 345 343 351 358 353 347 341 330 318 312 314 318 313 308 313 316 306 296 294 310 317 312 296 283 280 276 279 282 264 249 266 298 302 301 303 301 294 293 296 294 292 300 309 305 300 305 309 239 240 249 241 218 195 184 208 245 261 264 261 261 265
284 283 281 280 281 283 284 288 292 297 301 304 308 311 313 317 320 323 327 335 344 353 352 347 348 353 348 343 345 352 344 330 320 314 310 310 316 320 314 312 317 318 308 297 290 304 322 322 305 286 293 311 311 277 231 256 283 293 303 315 315 310 302 297 290 273 249 242 278 289 289 309 357 196 211 229 238 226 195 177 227 253 265 272 270 268 269
281 280 278 277 277 279 283 288 291 293 297 301 305 310 314 321 329 327 327 338 348 344 338 339 343 345 342 336 330 324 319 314 306 301 302 308 317 318 310 310 313 310 304 300 298 301 311 315 305 285 291 313 307 291 274 280 288 293 302 312 312 309 308 310 305 289 259 210 198 223 243 274 33 62 187 217 234 231 210 217 259 268 271 272 269 269 283
278 278 275 272 270 273 283 290 292 293 296 298 301 310 319 328 344 344 341 352 358 338 326 335 338 324 309 306 307 305 302 300 299 296 296 301 307 305 300 300 302 296 290 290 292 294 300 306 305 284 269 282 291 291 283 280 287 297 304 308 308 308 310 313 312 306 303 286 221 200 192 119 66 255 233 230 243 246 237 240 257 270 280 281 280 283 295
277 275 271 268 269 274 283 289 291 295 297 294 302 317 320 322 353 355 336 321 308 301 304 305 296 288 287 288 287 288 291 295 299 300 298 298 304 309 308 302 295 291 289 290 291 293 293 292 293 295 292 293 296 295 285 281 288 297 299 301 304 307 310 312 307 300 302 304 292 238 191 175 234 250 253 254 264 269 269 273 281 284 284 284 287 292 298
270 266 264 266 270 278 283 282 280 283 285 290 307 317 307 319 355 347 314 289 279 277 276 273 272 275 279 282 285 293 302 305 299 296 297 303 310 313 308 299 295 295 296 297 297 294 287 284 286 290 290 295 303 302 290 280 282 287 288 288 287 288 295 303 301 293 291 295 294 278 248 239 241 249 250 243 247 266 279 292 301 295 285 284 286 288 291
262 258 259 261 266 274 274 260 261 275 284 314 345 351 357 357 348 328 307 305 306 292 278 273 272 274 278 283 288 294 297 292 287 290 298 305 307 302 296 295 297 298 298 299 298 289 279 277 283 285 287 296 305 300 286 275 279 283 282 279 280 281 283 287 292 297 295 289 286 281 267 250 235 242 244 241 246 263 277 294 306 298 284 281 286 288 291
258 256 259 262 265 266 255 239 245 259 258 332 342 339 337 323 304 293 291 296 297 290 285 283 281 281 285 290 292 290 290 296 301 302 300 297 294 290 288 291 295 297 298 299 295 287 280 282 291 302 314 325 324 311 293 283 286 287 285 283 283 283 283 281 285 294 294 281 273 272 266 251 230 227 247 257 266 273 274 280 292 288 280 280 287 293 298
251 254 259 261 257 255 252 245 242 240 229 277 308 311 305 293 286 285 288 288 286 287 289 289 288 290 295 297 292 286 292 299 296 291 289 289 288 288 291 293 292 292 294 294 292 289 285 283 288 301 315 324 327 322 308 292 286 286 287 287 286 286 287 285 280 278 281 279 274 274 275 268 255 248 263 274 276 276 274 269 263 264 272 279 280 284 291
246 253 256 254 252 254 254 221 190 199 220 274 292 291 290 288 283 278 276 276 280 284 285 286 291 301 309 304 287 281 285 287 285 286 290 290 285 285 288 288 283 285 295 305 317 321 302 289 292 304 313 314 317 318 313 304 297 293 288 286 284 286 289 289 282 275 277 278 274 273 275 269 256 246 261 279 275 272 281 281 263 251 258 268 270 271 278
250 256 258 261 267 269 249 217 213 224 247 271 275 278 284 284 277 270 268 271 276 278 279 284 295 306 313 309 296 294 296 294 290 290 293 292 288 288 289 286 283 289 304 322 333 328 318 316 319 321 319 315 313 311 308 307 307 305 297 290 286 284 284 285 281 278 278 278 275 272 270 264 252 231 199 225 278 288 302 308 293 256 244 249 256 265 274
251 259 264 267 269 254 220 211 214 223 240 257 266 274 277 276 274 274 274 271 270 274 281 289 293 293 291 294 300 304 307 302 289 287 291 293 291 290 290 292 295 300 304 311 315 317 319 323 324 321 317 314 311 306 302 301 303 305 304 296 288 281 278 275 271 268 269 274 276 273 269 261 248 218 180 171 209 289 301 296 295 283 259 255 260 271 280
257 260 259 253 239 216 208 211 214 225 240 252 264 270 271 271 273 276 277 275 275 280 288 292 286 275 271 278 284 284 283 282 282 287 295 296 292 289 294 307 319 313 300 298 305 312 316 319 319 318 317 314 309 304 300 296 295 297 301 299 291 281 273 268 264 260 258 263 269 271 269 263 248 220 191 179 183 202 231 248 251 251 259 268 277 285 291
257 252 246 240 227 214 215 222 235 252 257 255 255 259 263 264 263 264 268 274 280 286 290 291 285 275 271 271 268 267 273 280 285 289 294 294 293 293 293 298 306 310 306 303 305 310 313 314 314 314 315 314 311 307 303 296 291 290 293 294 291 284 273 264 260 256 253 255 259 262 266 265 251 228 207 200 211 227 245 257 247 230 245 268 278 281 302